Weather History for KCLT - February, 2003

Change the Weather History Date:

Saturday, February 8, 2003

  Actual Average Record
Temperature  
Mean Temperature 34 °F 42 °F  
Max Temperature 42 °F 54 °F 74 °F (2009)
Min Temperature 27 °F 31 °F 1 °F (1895)
Degree Days  
Heating Degree Days 30 23  
Month to date heating degree days 185  
Since 1 July heating degree days 2292  
Cooling Degree Days 0 0  
Month to date cooling degree days 0  
Year to date cooling degree days 0  
Moisture  
Dew Point 15 °F    
Average Humidity 47    
Maximum Humidity 72    
Minimum Humidity 29    
Precipitation  
Precipitation 0.00 in 0.10 in 1.12 in (1896)
Month to date precipitation 0.87  
Year to date precipitation 4.28  
Snow  
Snow 0.00 in 0.10 in 0.20 in (1964)
Month to date snowfall 0.4  
Since 1 July snowfall 2.9  
Snow Depth -    
Sea Level Pressure  
Sea Level Pressure 30.21 in    
Wind  
Wind Speed 4 mph (WSW)    
Max Wind Speed 9 mph    
Max Gust Speed -    
Visibility 10 miles    
Events      
T = Trace of Precipitation, MM = Missing Value Source: NWS Daily Summary

Daily Weather History Graph

Daily Weather History Graph

Search for Another Location

Airport or City:

Trip Planner

Search our weather history database for the weather conditions in past years. The results will help you decide how hot, cold, wet, or windy it might be!

Date:

Astronomy

Feb. 08, 2003 Rise Set
Actual Time 7:17 AM EST 5:59 PM EST
Civil Twilight 6:51 AM EST 6:25 PM EST
Nautical Twilight 6:21 AM EST 6:55 PM EST
Astronomical Twilight 5:51 AM EST 7:25 PM EST
Moon 11:09 AM EST (2/8) No Moon Set
Length of Visible Light 11h 34m
Length of Day
10h 41m
Waxing Crescent, 43% of the Moon is Illuminated
Feb 8
Waxing Crescent
Feb 9
First Quarter
Feb 16
Full
Feb 23
Last Quarter
Mar 2
New

Hourly Weather History & Observations

Time (EST) Temp. Windchill Dew Point Humidity Pressure Visibility Wind Dir Wind Speed Gust Speed Precip Events Conditions
12:51 AM 30.9 °F - 21.9 °F 69% 30.16 in 10.0 mi Calm Calm - N/A   Mostly Cloudy
1:51 AM 30.9 °F - 21.0 °F 67% 30.16 in 10.0 mi Calm Calm - N/A   Mostly Cloudy
2:51 AM 28.9 °F 23.9 °F 21.0 °F 72% 30.17 in 10.0 mi WNW 4.6 mph - N/A   Mostly Cloudy
3:51 AM 28.9 °F 22.8 °F 21.0 °F 72% 30.18 in 10.0 mi NW 5.8 mph - N/A   Mostly Cloudy
4:51 AM 28.9 °F 25.2 °F 18.0 °F 64% 30.19 in 10.0 mi NNW 3.5 mph - N/A   Mostly Cloudy
5:51 AM 28.9 °F 21.1 °F 15.1 °F 56% 30.22 in 10.0 mi NNW 8.1 mph - N/A   Mostly Cloudy
6:51 AM 28.0 °F 22.8 °F 12.9 °F 53% 30.25 in 10.0 mi NNW 4.6 mph - N/A   Overcast
7:51 AM 27.0 °F 18.7 °F 12.9 °F 56% 30.27 in 10.0 mi NNW 8.1 mph - N/A   Mostly Cloudy
8:51 AM 30.0 °F 23.2 °F 10.0 °F 43% 30.29 in 10.0 mi North 6.9 mph - N/A   Partly Cloudy
9:51 AM 32.0 °F 26.4 °F 10.0 °F 40% 30.28 in 10.0 mi NE 5.8 mph - N/A   Partly Cloudy
10:51 AM 32.0 °F - 7.0 °F 35% 30.28 in 10.0 mi Calm Calm - N/A   Partly Cloudy
11:51 AM 36.0 °F 32.1 °F 10.9 °F 36% 30.27 in 10.0 mi SSW 4.6 mph - N/A   Partly Cloudy
12:51 PM 37.9 °F 33.5 °F 9.0 °F 30% 30.23 in 10.0 mi Variable 5.8 mph - N/A   Scattered Clouds
1:51 PM 39.0 °F 33.4 °F 10.9 °F 32% 30.20 in 10.0 mi SW 8.1 mph - N/A   Partly Cloudy
2:51 PM 42.1 °F 38.4 °F 15.1 °F 34% 30.20 in 10.0 mi Variable 5.8 mph - N/A   Partly Cloudy
3:51 PM 42.1 °F 36.6 °F 12.9 °F 31% 30.19 in 10.0 mi SW 9.2 mph - N/A   Scattered Clouds
4:51 PM 42.1 °F 38.4 °F 12.9 °F 31% 30.19 in 10.0 mi SSW 5.8 mph - N/A   Scattered Clouds
5:51 PM 39.9 °F 37.8 °F 10.0 °F 29% 30.19 in 10.0 mi WSW 3.5 mph - N/A   Scattered Clouds
6:51 PM 36.0 °F 33.3 °F 12.0 °F 37% 30.22 in 10.0 mi SSW 3.5 mph - N/A   Partly Cloudy
7:51 PM 36.0 °F 33.3 °F 14.0 °F 41% 30.22 in 10.0 mi SW 3.5 mph - N/A   Scattered Clouds
8:51 PM 35.1 °F 31.0 °F 16.0 °F 46% 30.22 in 10.0 mi SW 4.6 mph - N/A   Mostly Cloudy
9:51 PM 33.1 °F - 19.9 °F 59% 30.20 in 10.0 mi Calm Calm - N/A   Overcast
10:51 PM 33.1 °F 28.7 °F 19.0 °F 56% 30.20 in 10.0 mi South 4.6 mph - N/A   Overcast
11:51 PM 35.1 °F 32.2 °F 16.0 °F 46% 30.18 in 10.0 mi SSW 3.5 mph - N/A   Overcast